Overview Statistics Trail Chart Weather Telemetry Raw packets
 

This is the latest recevied weather packets stored in our database for station/object KB2EAR-13. If no packets are shown the sender has not sent any weather packets the latest 10 day(s).

<< 50 51 52 53 54 55 56 >>
Time Temp. Humidity Pressure Rain* Wind** Luminosity Snow
1788294631 30.56° C 73% 1014.6 hPa 0 mm - - -
1788294318 30.56° C 75% 1014.5 hPa 0 mm - - -
1788294017 30.56° C 74% 1014.5 hPa 0 mm - - -
1788293717 30.56° C 74% 1014.5 hPa 0 mm - - -
1788293417 30° C 77% 1014.5 hPa 0 mm - - -
1788293117 30° C 75% 1014.6 hPa 0 mm - - -
1788292817 30° C 75% 1014.8 hPa 0 mm - - -
1788292517 30° C 75% 1014.8 hPa 0 mm - - -
1788292217 30° C 75% 1014.8 hPa 0 mm - - -
1788291917 30° C 74% 1014.7 hPa 0 mm - - -
1788291617 30° C 74% 1014.7 hPa 0 mm - - -
1788291317 30° C 75% 1014.6 hPa 0 mm - - -
1788291017 30° C 75% 1014.6 hPa 0 mm - - -
1788290717 30° C 76% 1014.6 hPa 0 mm - - -
1788290417 29.44° C 77% 1014.6 hPa 0 mm - - -
1788290117 29.44° C 76% 1014.6 hPa 0 mm - - -
1788289818 30° C 76% 1014.9 hPa 0 mm - - -
1788289517 30° C 76% 1014.8 hPa 0 mm - - -
1788289217 30° C 75% 1015 hPa 0 mm - - -
1788288917 30° C 74% 1014.9 hPa 0 mm - - -
1788288617 30° C 74% 1014.8 hPa 0 mm - - -
1788288317 30° C 74% 1014.7 hPa 0 mm - - -
1788288017 30° C 75% 1014.7 hPa 0 mm - - -
1788287718 29.44° C 75% 1014.7 hPa 0 mm - - -
1788287417 29.44° C 78% 1014.7 hPa 0 mm - - -

* Rain latest hour (hover to see other rain measurements)
** Current wind speed in m/s (hover to see current wind gust speed)